Location: St Andrew
(49.4460°N, 2.5750°W)
Time: 23:15:15
(UTC+01:00)

Daily predictions for brighter satellites

Satellite Brightness Start Highest point End
(mag) Time Altitude Azimuth Time Altitude Azimuth Time Altitude Azimuth
Cosmos 2219 Rocket 2.7 21:52:08 10° NNW 21:57:35 49° NE 22:03:01 10° SE
Cosmos 1707 Rocket 3.7 21:54:37 10° N 21:58:57 61° ENE 22:03:17 10° SSE
YAOGAN 6 2.6 21:55:59 10° SSE 21:59:36 73° ENE 22:03:12 10° N
ARGOS 3.4 21:56:07 10° SSE 22:01:25 61° ENE 22:06:44 10° N
H-2A R/B 3.4 21:57:15 10° S 22:01:33 42° W 22:05:52 10° NNW
SPOT 5 3.2 21:57:44 10° S 22:02:20 68° WSW 22:07:14 10° NNW
NOSS 0 Rocket 4.4 21:56:41 10° NNW 22:02:43 53° NE 22:08:44 10° SE
ATLAS 2AS CENTAUR R/B 4.3 21:58:37 10° SE 22:03:08 17° ESE 22:07:49 10° ENE
Cosmos 1939 Rocket 4.2 22:01:04 10° SSW 22:04:43 36° W 22:08:21 10° NNW
Cosmos 1666 Rocket 4.1 22:03:04 10° SSE 22:07:13 42° E 22:11:25 10° NNE
Tiangong 1 3.2 22:06:43 10° SSE 22:07:18 10° SSE 22:07:54 10° SE
Cosmos 2237 4.4 22:04:18 10° NNW 22:10:03 75° WSW 22:15:45 10° SSE
AVUM R/B 4.1 22:09:44 10° SW 22:12:06 41° NW 22:14:41 10° NNE
ATLAS 3B R/B 3.6 22:07:25 10° NW 22:14:20 45° NNE 22:20:48 10° ESE
Cosmos 1455 3.7 22:12:12 10° NNE 22:15:21 24° ENE 22:18:29 10° SE
Cosmos 1980 4.2 22:10:37 10° NNW 22:16:08 50° NE 22:21:37 10° SE
CZ-4C R/B 4.5 22:10:47 10° NW 22:16:09 27° NNE 22:22:03 10° ENE
USA 32 4.3 22:16:55 10° N 22:22:09 59° E 22:27:19 10° SSE
Cosmos 2219 3.2 22:19:54 10° SSW 22:25:38 76° ESE 22:31:24 10° NNE
NOSS 3-1 (C) 3.6 22:20:35 10° SSW 22:26:20 54° ESE 22:32:46 10° NE
Envisat 4.4 22:22:06 10° SSW 22:26:44 35° W 22:31:25 10° NNW
Cosmos 2333 4.4 22:22:53 10° NNW 22:28:36 72° WSW 22:34:20 10° SSE
Cosmos 2237 Rocket 2.6 22:23:12 10° NNW 22:28:51 57° NE 22:34:14 11° SE
Cosmos 292 Rocket 3.8 22:25:52 10° NNW 22:30:41 86° ENE 22:35:12 11° SSE
Meteor 2-10 4.3 22:28:47 10° N 22:34:29 70° ENE 22:39:59 11° SSE
Landsat 7 3.9 22:30:24 10° SSE 22:35:04 72° ENE 22:39:50 10° N
Cosmos 1726 2.4 22:31:32 10° NNW 22:35:18 68° W 22:39:04 10° S
CZ-4C R/B 3.0 22:36:35 12° SSE 22:39:45 82° ENE 22:43:15 10° NNW
Cosmos 2360 Rocket 4.0 22:35:28 10° NW 22:40:00 25° WSW 22:44:33 10° SSW
Cosmos 1937 Rocket 3.7 22:42:16 10° S 22:47:20 52° ESE 22:52:23 10° NNE
Cosmos 2298 Rocket 4.0 22:42:37 10° SSW 22:47:56 82° ESE 22:53:18 10° NNE
Cosmos 2242 Rocket 3.8 22:45:22 10° NNW 22:49:50 70° W 22:54:13 10° S
Cosmos 1271 Rocket 2.9 22:47:05 10° NNW 22:50:53 68° W 22:54:24 12° S
Terra 1.9 22:46:46 13° SSE 22:50:55 73° ENE 22:55:41 10° N
ERBS 3.9 22:52:08 17° SE 22:52:33 17° SE 22:54:53 10° E
Spot 4 4.1 22:50:01 14° SSE 22:54:05 63° ENE 22:58:54 10° N
COSMOS 2455 3.3 22:49:26 10° NNW 22:55:24 56° NE 23:00:50 12° SE
Cosmos 1862 Rocket 3.6 22:53:20 10° N 22:57:41 69° ENE 23:01:03 16° SSE
Cosmos 990 Rocket 4.3 22:53:45 10° S 22:58:35 47° ESE 23:03:32 10° NNE
Cosmos 1703 3.2 22:55:01 10° S 22:58:52 82° E 23:02:48 10° NNE
Meteor 1-4 Rocket 3.4 22:55:19 10° NNW 22:58:58 49° W 23:02:21 11° S
SL-14 R/B 3.9 22:55:11 10° SSW 22:59:05 57° WNW 23:03:05 10° N
Lacrosse 4 Rocket 2.4 22:56:26 10° NNW 23:00:37 42° NE 23:04:23 13° ESE
USA 234 4.4 22:55:56 10° ENE 23:02:06 46° N 23:08:17 10° WNW
CARTOSAT-1 3.6 22:59:44 15° SSE 23:03:18 84° W 23:07:39 10° NNW
Sich 1 3.5 22:59:15 10° SSW 23:03:37 61° WNW 23:08:00 10° N
Iridium 2 3.7 23:02:00 12° S 23:05:30 86° W 23:09:23 10° N
Cosmos 1633 Rocket 3.6 23:02:42 10° SSW 23:07:02 60° WNW 23:11:23 10° N
CZ-4B R/B 4.4 23:03:34 10° N 23:08:42 53° WNW 23:13:46 10° SW
Cosmos 1269 Rocket 4.4 23:03:27 10° NNW 23:08:43 57° ENE 23:12:46 17° SE
CZ-4 R/B 4.3 23:04:19 10° N 23:09:15 66° WNW 23:14:04 10° SSW
Cosmos 1346 3.1 23:08:30 20° S 23:10:22 60° E 23:13:23 10° NNE
H-2A R/B 2.3 23:06:08 14° S 23:10:49 72° WSW 23:16:18 10° NNW
Cosmos 2227 Rocket 2.4 23:06:17 10° S 23:11:42 51° ESE 23:17:11 10° NE
Cosmos 1626 2.1 23:16:58 18° S 23:19:40 74° E 23:23:26 10° NNE
Cosmos 2333 Rocket 2.6 23:15:17 10° NW 23:20:56 58° WSW 23:25:16 17° S
SL-16 R/B 2.4 23:16:27 10° NNW 23:22:08 66° ENE 23:26:25 18° SE
Nadezhda 1 Rocket 4.2 23:17:03 10° NNW 23:23:05 67° W 23:28:24 14° S
GEOS 3 Rocket 4.3 23:18:39 10° ESE 23:23:40 51° NE 23:28:40 10° NW
BREEZE-M DEB (TANK) 3.8 23:10:34 10° W 23:26:38 88° SSW 23:30:41 10° E
Cosmos 1933 3.5 23:24:56 10° N 23:28:58 63° ENE 23:31:19 24° SSE
Cosmos 1898 Rocket 4.2 23:25:01 10° SW 23:30:06 56° WNW 23:35:16 10° NNE
NOSS 3-1 (A) 3.6 23:24:08 10° SW 23:30:10 85° NW 23:37:00 10° NE
H-2A R/B 4.5 23:29:06 10° NE 23:31:32 15° E 23:32:56 13° ESE
Cosmos 1048 Rocket 4.2 23:27:30 10° NNW 23:32:53 71° ENE 23:36:33 21° SE
SeaSat 1 2.8 23:30:09 18° SE 23:33:48 61° NE 23:38:41 10° NNW
Cosmos 1125 Rocket 4.0 23:32:46 20° SSE 23:36:03 44° ESE 23:41:06 10° NE
Cosmos 2297 Rocket 2.3 23:34:15 16° S 23:38:45 58° ESE 23:44:18 10° NE
Cosmos 1745 Rocket 4.5 23:34:10 10° SSW 23:40:17 59° WNW 23:46:24 10° N
Cosmos 2219 Rocket 3.4 23:36:27 10° NW 23:41:20 32° WSW 23:45:25 14° SSW
ALOS 2 3.9 23:39:40 16° ESE 23:42:26 31° ENE 23:46:18 10° N
Tiangong 1 3.6 23:40:45 10° SW 23:40:48 10° SW 23:40:48 10° SW
Cosmos 389 Rocket 3.0 23:42:26 10° N 23:45:56 47° ENE 23:47:30 27° SE
Cosmos 1709 Rocket 3.9 23:43:47 18° S 23:48:26 80° E 23:54:34 10° NNE
Cosmos 1455 3.7 23:47:46 10° NNW 23:51:07 30° W 23:53:41 15° SW
Okean 1-7 3.1 23:48:19 10° N 23:52:35 65° ENE 23:54:47 27° SSE
